Flinders Reef Observation History
Time Wind Speed Temp Pressure Rel. Hum Rain
25/02:30pm SE 10-12 kts 28.0°c 1004.9 hPa n/a n/a
25/02:00pm SE 11-13 kts 27.5°c 1005.0 hPa n/a n/a
25/01:30pm SE 10-12 kts 27.4°c 1005.3 hPa n/a n/a
25/01:00pm SE 11-12 kts 27.6°c 1005.5 hPa n/a n/a
25/12:30pm SE 11-13 kts 27.6°c 1005.8 hPa n/a n/a
25/12:00pm ESE 11-13 kts 27.3°c 1006.3 hPa n/a n/a
25/11:30am ESE 10-12 kts 27.3°c 1006.7 hPa n/a n/a
25/11:00am ESE 13-14 kts 27.2°c 1007.0 hPa n/a n/a
25/10:30am ESE 13-15 kts 27.3°c 1007.5 hPa n/a n/a
25/10:00am ESE 13-15 kts 27.4°c 1007.6 hPa n/a n/a
25/09:30am SE 12-14 kts 27.5°c 1007.8 hPa n/a n/a
25/09:00am ESE 12-14 kts 27.5°c 1007.6 hPa n/a n/a
25/08:30am ESE 11-14 kts 27.5°c 1007.6 hPa n/a n/a
25/08:00am SE 12-15 kts 27.6°c 1007.3 hPa n/a n/a
25/07:30am SE 12-15 kts 27.2°c 1007.2 hPa n/a n/a
25/07:00am SE 13-15 kts 27.4°c 1006.8 hPa n/a n/a
25/06:30am SE 12-14 kts 27.3°c 1006.6 hPa n/a n/a
25/06:00am SE 12-14 kts 27.5°c 1006.3 hPa n/a n/a
25/05:30am SE 13-15 kts 27.4°c 1006.2 hPa n/a n/a
25/05:00am SE 14-16 kts 27.4°c 1006.0 hPa n/a n/a
25/04:30am SE 14-16 kts 27.4°c 1005.9 hPa n/a n/a
25/04:00am SE 13-16 kts 27.3°c 1005.9 hPa n/a n/a
25/03:30am SE 12-14 kts 27.2°c 1006.0 hPa n/a n/a
25/03:00am SE 12-14 kts 27.2°c 1006.2 hPa n/a n/a
25/02:30am SE 13-15 kts 27.3°c 1006.3 hPa n/a n/a
25/02:00am SE 13-16 kts 27.5°c 1006.5 hPa n/a n/a
25/01:30am SE 15-17 kts 27.6°c 1006.6 hPa n/a n/a
25/01:00am SE 15-18 kts 27.1°c 1006.9 hPa n/a n/a
25/12:30am SE 15-19 kts 27.1°c 1007.1 hPa n/a n/a
25/12:00am SE 16-18 kts 27.1°c 1007.4 hPa n/a n/a
Time Wind Speed Temp Pressure Rel. Hum Rain
24/11:30pm SE 17-18 kts 27.2°c 1007.7 hPa n/a n/a
24/11:00pm SE 16-19 kts 27.3°c 1008.0 hPa n/a n/a
24/10:30pm SE 16-18 kts 27.3°c 1008.1 hPa n/a n/a
24/10:00pm SE 16-18 kts 27.6°c 1008.1 hPa n/a n/a
24/09:30pm SE 15-17 kts 27.7°c 1008.0 hPa n/a n/a
24/09:00pm SE 15-19 kts 27.9°c 1007.8 hPa n/a n/a
24/08:30pm SE 16-18 kts 28.0°c 1007.5 hPa n/a n/a
24/08:00pm SE 16-19 kts 27.8°c 1007.3 hPa n/a n/a
24/07:30pm SE 18-20 kts 27.7°c 1007.3 hPa n/a n/a
24/07:00pm SSE 16-19 kts 27.6°c 1007.1 hPa n/a n/a
24/06:30pm SSE 16-19 kts 27.6°c 1006.9 hPa n/a n/a
24/06:00pm SSE 16-18 kts 27.7°c 1006.8 hPa n/a n/a
24/05:30pm SSE 15-17 kts 27.7°c 1006.5 hPa n/a n/a
24/05:00pm SSE 15-18 kts 27.8°c 1006.2 hPa n/a n/a
24/04:30pm SSE 16-18 kts 27.8°c 1006.0 hPa n/a n/a
24/04:00pm SE 17-20 kts 28.0°c 1005.8 hPa n/a n/a
24/03:30pm SE 17-20 kts 27.9°c 1005.9 hPa n/a n/a
24/03:00pm SE 18-20 kts 27.8°c 1005.9 hPa n/a n/a
24/02:30pm SE 17-21 kts 27.8°c 1006.1 hPa n/a n/a
24/02:00pm SE 17-20 kts 27.8°c 1006.5 hPa n/a n/a
24/01:30pm SE 17-20 kts 27.7°c 1006.8 hPa n/a n/a
24/01:00pm SE 17-21 kts 27.8°c 1007.1 hPa n/a n/a
24/12:30pm SE 17-21 kts 27.7°c 1007.3 hPa n/a n/a
24/12:00pm SE 17-21 kts 27.8°c 1007.7 hPa n/a n/a
24/11:30am SE 17-20 kts 27.9°c 1007.9 hPa n/a n/a
24/11:00am SE 18-21 kts 27.9°c 1008.3 hPa n/a n/a
24/10:30am SE 18-20 kts 28.0°c 1008.6 hPa n/a n/a
24/10:00am SE 19-22 kts 28.1°c 1008.8 hPa n/a n/a
24/09:30am SE 19-22 kts 27.7°c 1008.7 hPa n/a n/a
24/09:00am SE 19-23 kts 27.5°c 1009.0 hPa n/a n/a
24/08:30am ESE 20-23 kts 27.5°c 1008.9 hPa n/a n/a
24/08:00am ESE 21-24 kts 27.2°c 1008.8 hPa n/a n/a
24/07:30am ESE 23-26 kts 26.8°c 1008.7 hPa n/a n/a
24/07:00am ESE 19-26 kts 26.4°c 1008.5 hPa n/a n/a
24/06:30am ESE 16-19 kts 27.2°c 1008.3 hPa n/a n/a
24/06:00am ESE 18-20 kts 26.5°c 1008.0 hPa n/a n/a
24/05:30am ESE 18-21 kts 26.9°c 1007.8 hPa n/a n/a
24/05:00am ESE 17-20 kts 27.0°c 1007.5 hPa n/a n/a
24/04:30am ESE 14-16 kts 27.2°c 1007.3 hPa n/a n/a
24/04:00am E 15-18 kts 27.3°c 1007.3 hPa n/a n/a
24/03:30am E 17-19 kts 27.1°c 1007.2 hPa n/a n/a
24/03:00am E 16-18 kts 27.2°c 1007.6 hPa n/a n/a
24/02:30am E 16-18 kts 27.2°c 1007.9 hPa n/a n/a
24/02:00am E 17-20 kts 27.3°c 1008.3 hPa n/a n/a
24/01:30am E 17-19 kts 27.1°c 1008.4 hPa n/a n/a
24/01:00am E 17-20 kts 27.1°c 1008.7 hPa n/a n/a
24/12:30am E 19-21 kts 27.2°c 1009.0 hPa n/a n/a
24/12:00am E 20-22 kts 27.3°c 1009.2 hPa n/a n/a
Time Wind Speed Temp Pressure Rel. Hum Rain
23/11:30pm E 21-23 kts 27.3°c 1009.3 hPa n/a n/a
23/11:00pm E 20-22 kts 27.5°c 1009.5 hPa n/a n/a
23/10:30pm E 20-23 kts 28.0°c 1009.7 hPa n/a n/a
23/10:00pm ESE 20-23 kts 27.8°c 1009.6 hPa n/a n/a
23/09:30pm ESE 21-26 kts 27.8°c 1009.3 hPa n/a n/a
23/09:00pm ESE 20-24 kts 28.0°c 1009.4 hPa n/a n/a
23/08:30pm ESE 20-24 kts 27.8°c 1009.0 hPa n/a n/a
23/08:00pm ESE 20-26 kts 27.8°c 1008.7 hPa n/a n/a
23/07:30pm ESE 21-24 kts 27.9°c 1008.6 hPa n/a n/a
23/07:00pm SE 20-23 kts 28.1°c 1008.6 hPa n/a n/a
23/06:30pm SE 20-24 kts 28.0°c 1008.5 hPa n/a n/a
23/06:00pm SE 20-23 kts 27.9°c 1008.3 hPa n/a n/a
23/05:30pm SE 19-22 kts 28.0°c 1007.8 hPa n/a n/a
23/05:00pm SE 19-22 kts 28.1°c 1007.4 hPa n/a n/a
23/04:30pm SSE 19-22 kts 27.9°c 1007.3 hPa n/a n/a
23/04:00pm SSE 18-21 kts 28.0°c 1007.1 hPa n/a n/a
23/03:30pm SE 18-22 kts 27.9°c 1006.9 hPa n/a n/a
23/03:00pm SE 19-21 kts 27.9°c 1007.3 hPa n/a n/a
23/02:30pm SSE 18-21 kts 28.0°c 1007.6 hPa n/a n/a
23/02:00pm SE 18-21 kts 27.9°c 1007.9 hPa n/a n/a
23/01:30pm SE 15-18 kts 27.9°c 1008.0 hPa n/a n/a
23/01:00pm SE 16-20 kts 28.0°c 1008.1 hPa n/a n/a
23/12:30pm SE 18-21 kts 28.0°c 1008.6 hPa n/a n/a
23/12:00pm SSE 17-20 kts 28.0°c 1008.8 hPa n/a n/a
23/11:30am SE 17-20 kts 27.8°c 1008.9 hPa n/a n/a
23/11:00am SE 18-21 kts 27.9°c 1009.0 hPa n/a n/a
23/10:30am SE 16-20 kts 27.8°c 1009.2 hPa n/a n/a
23/10:00am SE 17-19 kts 27.7°c 1009.2 hPa n/a n/a
23/09:30am SE 17-19 kts 27.7°c 1009.4 hPa n/a n/a
23/09:00am SE 17-19 kts 27.8°c 1009.2 hPa n/a n/a
23/08:30am SE 16-19 kts 27.7°c 1009.1 hPa n/a n/a
23/08:00am SE 16-19 kts 27.6°c 1008.7 hPa n/a n/a
23/07:30am SE 15-18 kts 27.4°c 1008.3 hPa n/a n/a
23/07:00am SE 16-19 kts 27.5°c 1008.0 hPa n/a n/a
23/06:30am SE 16-19 kts 27.4°c 1008.0 hPa n/a n/a
23/06:00am SE 16-19 kts 27.3°c 1007.8 hPa n/a n/a
23/05:30am SE 15-18 kts 27.3°c 1007.6 hPa n/a n/a
23/05:00am SE 15-18 kts 27.3°c 1007.1 hPa n/a n/a
23/04:30am SE 15-18 kts 27.4°c 1007.1 hPa n/a n/a
23/04:00am SE 16-18 kts 27.4°c 1007.2 hPa n/a n/a
23/03:30am SE 17-19 kts 27.5°c 1007.6 hPa n/a n/a
23/03:00am SE 15-18 kts 27.5°c 1007.7 hPa n/a n/a
23/02:30am SE 16-19 kts 27.4°c 1007.8 hPa n/a n/a
23/02:00am SE 17-21 kts 27.5°c 1007.9 hPa n/a n/a
23/01:30am SE 17-19 kts 27.5°c 1008.1 hPa n/a n/a
23/01:00am SSE 18-21 kts 27.5°c 1008.6 hPa n/a n/a
23/12:30am SE 18-22 kts 27.6°c 1008.8 hPa n/a n/a
23/12:00am SE 17-20 kts 27.7°c 1009.2 hPa n/a n/a